Location: Christian Reformed Church
(43.0975°N, 93.8113°W)
Time: 12:09:04
(UTC+00:00)

Okean 1-7 Rocket - Pass Details

Date: 22 March 2026
Orbit: 609 x 643 km, 82.5° (Epoch: 14 April)

Event Time Altitude Azimuth Distance (km) Brightness Sun altitude
Rises 10:41:56 0° 354° (N) 2,914 7.2 -17.5°
Reaches altitude 10° 10:44:12 10° 357° (N) 1,997 6.3 -17.1°
Maximum altitude 10:48:36 66° 80° (E) 675 3.9 -16.3°
Drops below altitude 10° 10:52:55 10° 163° (SSE) 1,964 6.1 -15.6°
Sets 10:55:08 0° 166° (SSE) 2,861 7.0 -15.2°
